Soldotna, AK

2:21 AM AKDT on March 27, 2017 (GMT -0800)
Soldotna

Weather History for PASX - November, 2014

Change the Weather History Date:

Monday, November 3, 2014

  Actual Average Record
Temperature  
Mean Temperature 27 °F -  
Max Temperature 35 °F 34 °F 53 °F (1962)
Min Temperature 19 °F 19 °F -9 °F (1975)
Degree Days  
Heating Degree Days 38    
Moisture  
Dew Point 23 °F    
Average Humidity 82    
Maximum Humidity 100    
Minimum Humidity 65    
Precipitation  
Precipitation 0.00 in - - ()
Sea Level Pressure  
Sea Level Pressure 29.49 in    
Wind  
Wind Speed 3 mph (ENE)    
Max Wind Speed 13 mph    
Max Gust Speed 18 mph    
Visibility 10 miles    
Events      
Averages and records for this station are not official NWS values.
T = Trace of Precipitation, MM = Missing Value Source: NWS Daily Summary

Daily Weather History Graph

Daily Weather History Graph

Search for Another Location

Airport or City:

Trip Planner

Search our weather history database for the weather conditions in past years. The results will help you decide how hot, cold, wet, or windy it might be!

Date:

Astronomy

Nov. 03, 2014 Rise Set
Actual Time 8:34 AM AKST 5:00 PM AKST
Civil Twilight 7:47 AM AKST 5:46 PM AKST
Nautical Twilight 6:57 AM AKST 6:37 PM AKST
Astronomical Twilight 6:08 AM AKST 7:25 PM AKST
Moon 4:04 PM AKST (11/3) 3:58 AM AKST (11/3)
Length of Visible Light 9h 58m
Length of Day
8h 25m
Waxing Gibbous, 88% of the Moon is Illuminated
Nov 3
Waxing Gibbous
Nov 6
Full
Nov 14
Last Quarter
Nov 22
New
Nov 29
First Quarter

Hourly Weather History & Observations

Time (AKST) Temp. Windchill Dew Point Humidity Pressure Visibility Wind Dir Wind Speed Gust Speed Precip Events Conditions
12:16 AM 26.6 °F 21.2 °F 26.6 °F 100% 29.45 in 10.0 mi East 4.6 mph - N/A   Mostly Cloudy
12:36 AM 26.6 °F 22.6 °F 24.8 °F 93% 29.45 in 10.0 mi ESE 3.5 mph - N/A   Mostly Cloudy
12:56 AM 28.4 °F - 26.6 °F 93% 29.46 in 10.0 mi Calm Calm - N/A   Partly Cloudy
1:16 AM 26.6 °F - 24.8 °F 93% 29.46 in 10.0 mi Calm Calm - N/A   Clear
1:36 AM 24.8 °F - 19.4 °F 80% 29.47 in 10.0 mi Calm Calm - N/A   Clear
1:56 AM 26.6 °F - 24.8 °F 93% 29.47 in 10.0 mi Calm Calm - N/A   Clear
2:16 AM 24.8 °F - 21.2 °F 86% 29.47 in 10.0 mi Calm Calm - N/A   Clear
2:36 AM 23.0 °F - 19.4 °F 86% 29.47 in 10.0 mi Calm Calm - N/A   Clear
2:56 AM 23.0 °F 17.0 °F 19.4 °F 86% 29.48 in 10.0 mi ESE 4.6 mph - N/A   Clear
3:16 AM 23.0 °F - 19.4 °F 86% 29.47 in 10.0 mi Calm Calm - N/A   Clear
3:36 AM 23.0 °F - 21.2 °F 93% 29.48 in 10.0 mi Calm Calm - N/A   Clear
3:56 AM 21.2 °F - 17.6 °F 86% 29.48 in 10.0 mi Calm Calm - N/A   Clear
4:16 AM 23.0 °F - 21.2 °F 93% 29.48 in 10.0 mi Calm Calm - N/A   Clear
4:36 AM 21.2 °F - 19.4 °F 93% 29.48 in 10.0 mi Calm Calm - N/A   Scattered Clouds
4:56 AM 23.0 °F - 19.4 °F 86% 29.49 in 10.0 mi Calm Calm - N/A   Partly Cloudy
5:16 AM 19.4 °F - 17.6 °F 93% 29.49 in 10.0 mi Calm Calm - N/A   Clear
5:36 AM 19.4 °F - 15.8 °F 86% 29.50 in 10.0 mi Calm Calm - N/A   Clear
5:56 AM 19.4 °F - 15.8 °F 86% 29.50 in 10.0 mi Calm Calm - N/A   Partly Cloudy
6:16 AM 19.4 °F - 14.0 °F 80% 29.50 in 10.0 mi Calm Calm - N/A   Partly Cloudy
6:36 AM 19.4 °F - 15.8 °F 86% 29.51 in 10.0 mi Calm Calm - N/A   Mostly Cloudy
6:56 AM 21.2 °F - 21.2 °F 100% 29.50 in 10.0 mi Calm Calm - N/A   Overcast
7:16 AM 21.2 °F - 17.6 °F 86% 29.50 in 10.0 mi Calm Calm - N/A   Mostly Cloudy
7:36 AM 19.4 °F - 17.6 °F 93% 29.51 in 10.0 mi Calm Calm - N/A   Mostly Cloudy
7:56 AM 23.0 °F 18.4 °F 21.2 °F 93% 29.51 in 10.0 mi ESE 3.5 mph - N/A   Overcast
8:16 AM 24.8 °F - 19.4 °F 80% 29.51 in 10.0 mi Calm Calm - N/A   Overcast
8:36 AM 24.8 °F 20.5 °F 23.0 °F 93% 29.52 in 10.0 mi NE 3.5 mph - N/A   Overcast
8:56 AM 26.6 °F 22.6 °F 24.8 °F 93% 29.52 in 10.0 mi NE 3.5 mph - N/A   Mostly Cloudy
9:16 AM 28.4 °F 24.6 °F 24.8 °F 86% 29.53 in 10.0 mi ENE 3.5 mph - N/A   Partly Cloudy
9:36 AM 28.4 °F 24.6 °F 24.8 °F 86% 29.53 in 10.0 mi ENE 3.5 mph - N/A   Scattered Clouds
9:56 AM 30.2 °F 24.3 °F 24.8 °F 80% 29.53 in 10.0 mi ENE 5.8 mph - N/A   Overcast
10:16 AM 30.2 °F 25.4 °F 26.6 °F 86% 29.54 in 10.0 mi ENE 4.6 mph - N/A   Overcast
10:36 AM 30.2 °F 26.7 °F 26.6 °F 86% 29.53 in 10.0 mi ENE 3.5 mph - N/A   Partly Cloudy
10:56 AM 30.2 °F 23.4 °F 26.6 °F 86% 29.54 in 10.0 mi ENE 6.9 mph - N/A   Clear
11:16 AM 32.0 °F 27.5 °F 26.6 °F 80% 29.53 in 10.0 mi ENE 4.6 mph - N/A   Clear
11:36 AM 33.8 °F 27.0 °F 26.6 °F 75% 29.53 in 10.0 mi NE 8.1 mph - N/A   Clear
11:56 AM 33.8 °F 27.0 °F 26.6 °F 75% 29.53 in 10.0 mi ENE 8.1 mph - N/A   Clear
12:16 PM 33.8 °F 27.0 °F 26.6 °F 75% 29.53 in 10.0 mi ENE 8.1 mph - N/A   Clear
12:36 PM - - - N/A% 29.53 in 10.0 mi ENE 6.9 mph - N/A   Clear
12:56 PM - - - N/A% 29.52 in 10.0 mi NE 12.7 mph - N/A   Clear
1:16 PM 35.6 °F 29.9 °F 26.6 °F 70% 29.52 in 10.0 mi NE 6.9 mph - N/A   Clear
1:36 PM - - - N/A% 29.51 in 10.0 mi ENE 9.2 mph - N/A   Scattered Clouds
1:56 PM - - - N/A% 29.51 in 10.0 mi NE 11.5 mph - N/A   Overcast
2:16 PM - - - N/A% 29.51 in 10.0 mi NE 10.4 mph 18.4 mph N/A   Overcast
2:36 PM 35.6 °F 29.9 °F 26.6 °F 70% 29.52 in 10.0 mi NE 6.9 mph - N/A   Overcast
2:56 PM 35.6 °F 29.9 °F 24.8 °F 65% 29.51 in 10.0 mi NE 6.9 mph - N/A   Mostly Cloudy
3:16 PM 35.6 °F 31.7 °F 24.8 °F 65% 29.51 in 10.0 mi NE 4.6 mph - N/A   Partly Cloudy
3:36 PM 35.6 °F 29.9 °F 24.8 °F 65% 29.50 in 10.0 mi ENE 6.9 mph - N/A   Partly Cloudy
3:56 PM 35.6 °F 29.2 °F 26.6 °F 70% 29.50 in 10.0 mi NE 8.1 mph - N/A   Clear
4:16 PM 35.6 °F 31.7 °F 24.8 °F 65% 29.50 in 10.0 mi NE 4.6 mph - N/A   Clear
4:36 PM 35.6 °F 29.9 °F 24.8 °F 65% 29.49 in 10.0 mi ENE 6.9 mph - N/A   Scattered Clouds
4:56 PM 35.6 °F 29.9 °F 24.8 °F 65% 29.49 in 10.0 mi ENE 6.9 mph - N/A   Mostly Cloudy
5:16 PM 35.6 °F 31.7 °F 24.8 °F 65% 29.49 in 10.0 mi ENE 4.6 mph - N/A   Overcast
5:36 PM 33.8 °F 30.8 °F 24.8 °F 70% 29.49 in 10.0 mi East 3.5 mph - N/A   Overcast
5:56 PM 33.8 °F 29.6 °F 24.8 °F 70% 29.49 in 10.0 mi ENE 4.6 mph - N/A   Overcast
6:16 PM 33.8 °F 29.6 °F 24.8 °F 70% 29.49 in 10.0 mi ENE 4.6 mph - N/A   Overcast
6:36 PM 33.8 °F - 23.0 °F 65% 29.49 in 10.0 mi Calm Calm - N/A   Mostly Cloudy
6:56 PM 32.0 °F - 23.0 °F 69% 29.49 in 10.0 mi Calm Calm - N/A   Overcast
7:16 PM 30.2 °F - 23.0 °F 75% 29.48 in 10.0 mi Calm Calm - N/A   Overcast
7:36 PM 28.4 °F 23.3 °F 23.0 °F 80% 29.48 in 10.0 mi ESE 4.6 mph - N/A   Overcast
7:56 PM 30.2 °F - 24.8 °F 80% 29.48 in 10.0 mi Calm Calm - N/A   Overcast
8:16 PM 30.2 °F 25.4 °F 24.8 °F 80% 29.48 in 10.0 mi ESE 4.6 mph - N/A   Overcast
8:36 PM 30.2 °F 25.4 °F 24.8 °F 80% 29.48 in 10.0 mi East 4.6 mph - N/A   Mostly Cloudy
8:56 PM 30.2 °F 26.7 °F 26.6 °F 86% 29.48 in 10.0 mi East 3.5 mph - N/A   Mostly Cloudy
9:16 PM 28.4 °F 24.6 °F 24.8 °F 86% 29.48 in 10.0 mi East 3.5 mph - N/A   Partly Cloudy
9:36 PM 28.4 °F 23.3 °F 24.8 °F 86% 29.47 in 10.0 mi East 4.6 mph - N/A   Mostly Cloudy
9:56 PM 28.4 °F 23.3 °F 24.8 °F 86% 29.47 in 10.0 mi East 4.6 mph - N/A   Overcast
10:16 PM 28.4 °F 24.6 °F 24.8 °F 86% 29.47 in 10.0 mi ENE 3.5 mph - N/A   Overcast
10:36 PM 28.4 °F 24.6 °F 26.6 °F 93% 29.47 in 10.0 mi East 3.5 mph - N/A   Overcast
10:56 PM 28.4 °F - 26.6 °F 93% 29.47 in 10.0 mi Calm Calm - N/A   Overcast
11:16 PM 28.4 °F - 23.0 °F 80% 29.47 in 10.0 mi Calm Calm - N/A   Mostly Cloudy
11:36 PM 28.4 °F - 24.8 °F 86% 29.47 in 10.0 mi Calm Calm - N/A   Partly Cloudy
11:56 PM 26.6 °F - 23.0 °F 86% 29.46 in 10.0 mi Calm Calm - N/A   Mostly Cloudy